Temp
91 89 90 87 88 86 87 88 89 86 85 87 85 86 83 81 77 76 77 78 83 88 95 86 86 90 89 88 92 90 89 89 88 94 89 85 84 78 75 76 75 75 74 75 75 76 76 76 76 77 76 75 75 75 75 74 73 72 72 71 71 71 70 69 69 69 69 68 68 68 68 69 70 70
87 89 89 88 87 88 88 87 89 86 85 85 86 83 85 83 79 78 75 77 83 83 90 94 85 86 88 91 88 90 90 85 93 91 91 89 87 75 75 76 75 75 75 74 74 75 76 76 76 74 73 73 74 74 74 73 72 72 71 71 71 69 69 68 68 69 68 68 68 68 68 69 70 69
88 86 87 87 87 88 90 89 89 88 87 87 86 86 85 85 83 80 79 75 81 87 83 88 94 89 89 96 94 95 89 87 91 91 88 90 82 75 77 76 75 75 73 73 72 73 73 73 72 71 72 72 72 73 73 72 72 71 70 70 69 68 67 66 67 68 67 67 67 67 68 68 68 68
88 86 85 86 87 88 88 87 88 87 87 88 86 86 84 83 83 81 79 77 78 85 87 87 89 95 91 93 93 91 92 91 84 91 86 88 79 80 81 76 75 74 73 72 72 71 71 70 70 72 72 72 73 73 72 71 70 70 69 68 67 66 66 65 66 67 66 66 67 67 67 67 68 68
88 86 85 86 87 87 87 86 88 89 89 88 87 86 86 85 85 83 80 79 79 84 88 87 88 92 92 92 90 90 91 89 88 87 89 90 87 86 86 82 75 73 72 71 71 70 70 70 70 72 72 73 73 73 72 71 70 69 67 66 64 64 64 64 65 66 65 65 66 66 66 66 67 67
88 88 85 86 87 87 86 87 89 89 91 89 88 86 87 85 85 85 82 81 80 80 85 85 88 88 91 87 91 89 89 88 90 89 89 93 92 90 86 85 82 73 72 70 69 69 69 69 70 71 72 72 72 72 71 70 68 67 66 64 63 64 63 63 64 65 64 64 65 65 65 65 66 66
86 87 86 87 87 90 87 86 88 90 88 90 88 87 87 85 86 85 84 82 80 80 81 85 86 86 87 88 88 89 91 89 90 87 88 92 96 94 91 86 88 74 72 70 69 69 69 69 70 70 71 71 71 70 68 66 65 65 64 63 64 63 62 62 63 64 63 63 63 63 63 64 64 65
87 87 85 87 88 88 85 85 84 86 88 86 85 86 85 85 85 86 85 84 82 82 80 83 84 86 85 87 88 90 90 90 88 89 90 90 91 92 95 94 89 78 71 71 70 69 69 68 69 68 69 70 68 67 66 64 64 64 63 63 62 62 62 61 61 63 62 61 61 61 60 61 63 64
86 86 86 87 87 87 85 86 86 86 85 86 86 86 86 86 85 87 86 85 84 82 81 82 84 85 86 87 87 88 87 87 87 88 86 89 88 87 93 96 92 77 70 71 70 69 69 69 68 68 68 68 67 66 65 64 65 64 63 62 62 62 62 61 60 61 61 60 60 59 59 60 62 64
89 88 87 87 88 87 86 86 86 85 85 86 87 85 85 86 87 85 85 84 84 83 81 82 82 84 84 84 85 87 87 86 85 85 85 86 86 85 87 91 95 87 80 79 76 70 69 68 67 67 68 67 66 67 66 65 64 63 61 59 58 60 61 60 60 61 60 60 59 58 59 60 61 64
91 90 90 88 88 87 87 87 86 86 86 87 85 85 85 86 85 84 84 84 83 82 82 83 83 82 84 84 83 85 87 86 85 83 83 83 86 87 85 84 90 93 86 81 77 78 75 75 72 65 64 66 66 66 66 65 64 62 60 58 58 59 59 59 60 60 59 59 59 58 57 58 61 63
92 91 91 93 91 90 89 88 87 87 86 86 85 86 86 85 84 84 84 84 82 82 83 81 82 82 82 83 86 87 86 85 83 85 84 80 82 84 84 86 85 88 87 86 89 80 76 75 73 66 65 66 67 66 66 66 66 65 63 60 61 62 60 59 59 59 58 57 57 57 57 57 59 62
91 93 94 94 94 90 89 87 87 87 87 88 84 85 85 84 84 83 83 83 82 82 82 81 82 82 81 83 83 82 81 81 81 84 85 83 83 83 83 84 86 87 86 86 89 88 83 82 80 76 71 71 69 68 68 68 68 66 62 62 62 62 61 60 59 59 58 57 57 57 57 57 59 60
93 94 94 96 91 88 86 85 83 81 82 83 87 87 86 85 84 83 82 81 82 82 80 81 81 81 81 83 83 82 85 85 85 84 83 81 82 83 82 83 84 87 86 85 84 86 89 90 83 78 78 80 73 73 70 73 71 68 64 63 62 62 61 60 59 59 58 57 57 57 56 57 58 58
90 93 94 94 94 89 86 85 80 80 79 81 81 80 82 85 85 85 83 82 83 81 82 82 82 82 81 83 86 85 87 87 85 84 83 83 82 80 79 76 82 86 85 82 82 83 86 86 84 82 81 83 78 77 74 73 71 67 64 64 62 62 61 61 61 61 58 58 57 57 57 57 57 57
90 91 93 95 98 95 92 91 86 81 79 77 79 79 79 79 79 79 82 83 82 82 82 81 82 83 82 82 84 86 88 84 85 83 84 81 80 81 79 79 78 84 87 83 82 81 84 86 85 83 87 87 80 82 73 70 70 66 65 64 63 62 62 61 62 61 60 59 59 59 59 58 58 58
88 88 88 91 93 98 90 89 90 85 84 77 75 77 77 78 78 73 71 74 81 83 82 83 82 83 83 83 84 87 86 85 83 83 82 82 81 81 79 79 81 83 86 83 81 79 83 84 83 83 85 87 84 80 70 69 68 66 64 63 63 63 61 61 61 61 60 59 58 58 57 56 56 57
90 90 89 87 89 91 91 88 89 88 86 85 82 80 81 82 84 78 72 70 70 75 81 81 81 84 85 83 84 86 87 84 82 81 81 82 81 80 80 82 83 85 88 83 81 79 81 84 83 82 85 85 76 75 70 66 66 65 64 63 63 61 61 60 61 60 60 59 58 57 55 54 54 56
89 87 92 90 90 87 87 88 89 88 87 86 85 84 84 85 85 85 87 87 86 83 83 82 82 83 84 85 85 86 86 85 84 84 83 83 83 83 84 83 84 84 85 84 82 77 81 84 82 82 84 85 77 74 64 64 65 64 62 63 62 62 61 61 61 60 59 59 58 57 55 54 54 56
86 88 89 87 88 87 86 85 81 84 87 87 85 84 85 85 86 87 84 79 81 87 88 86 87 87 88 82 87 87 88 85 85 85 85 85 83 82 79 78 83 83 85 85 81 79 80 84 83 83 86 82 75 72 70 63 64 63 62 63 62 61 60 60 60 60 59 59 58 57 56 53 52 54
89 90 89 86 88 88 86 83 74 73 80 85 86 85 85 86 87 87 89 77 71 72 72 72 73 73 73 73 71 71 73 80 84 85 82 81 85 80 77 79 80 80 83 86 85 82 80 83 82 82 84 84 76 73 72 69 63 62 62 62 61 61 60 60 59 58 59 59 58 58 57 54 52 54
88 88 88 89 87 88 87 79 72 69 76 82 84 85 86 85 86 87 91 93 87 69 68 69 70 71 71 71 71 71 69 66 72 82 80 85 86 82 80 78 79 81 82 83 88 82 80 83 84 81 83 82 81 77 74 70 67 62 60 59 61 60 60 59 59 59 59 58 58 57 56 54 54 57
86 85 87 86 84 84 83 73 71 67 74 83 84 84 85 84 85 88 90 90 90 87 83 80 79 77 76 77 77 79 72 70 75 81 85 87 84 81 81 80 78 77 80 85 86 81 80 82 83 81 80 78 81 78 74 71 68 67 67 64 62 59 60 59 59 58 58 58 58 58 56 53 58 66
83 85 85 84 74 68 68 68 66 66 64 80 84 85 84 84 83 89 89 88 88 85 85 85 84 83 84 84 84 83 84 82 79 80 83 85 84 81 81 81 80 78 79 82 87 82 84 84 81 84 83 78 77 73 74 71 70 69 70 69 68 63 61 61 58 56 56 57 56 56 55 55 57 70
84 84 85 87 78 68 65 63 62 62 60 66 82 84 84 85 85 85 87 87 86 83 83 84 85 84 84 85 86 86 85 86 86 84 82 84 86 85 83 82 81 81 82 85 82 84 82 84 81 83 82 81 82 78 74 73 71 71 72 72 71 69 64 65 64 62 56 54 53 51 51 56 57 61
85 86 86 87 81 70 64 61 60 60 61 60 72 82 72 72 71 81 85 86 86 84 84 85 86 87 86 86 86 88 88 88 88 89 88 86 86 88 88 85 81 80 81 86 77 83 81 82 82 82 81 79 80 80 77 73 73 74 73 75 75 72 69 68 68 66 64 63 63 58 62 59 56 54
85 87 87 85 65 59 57 55 54 54 56 59 68 64 64 65 67 75 82 83 83 82 84 84 83 85 86 87 87 88 87 90 89 91 90 90 87 85 86 87 88 85 85 86 85 84 83 81 83 81 79 80 77 77 77 77 75 75 75 75 77 74 73 73 71 69 67 66 67 60 56 51 51 54
87 85 84 74 57 59 57 57 56 54 56 65 61 59 61 63 68 76 80 80 81 80 80 80 82 83 85 87 87 88 88 91 88 89 92 91 90 86 86 86 85 86 86 87 87 85 84 82 81 82 81 78 77 75 76 78 77 74 74 76 77 76 76 76 74 73 71 70 68 65 66 65 65 64
84 75 60 57 58 59 56 57 57 56 55 54 57 59 60 66 74 76 79 80 81 80 79 80 81 82 83 85 86 86 86 86 88 86 88 90 88 87 85 85 84 84 87 89 87 86 85 84 83 82 81 80 79 78 78 77 77 74 75 74 74 76 76 76 75 73 72 71 68 68 68 68 66 67
66 61 58 58 58 60 62 69 72 74 74 60 57 59 62 72 75 77 79 79 79 79 80 80 80 81 83 84 85 85 85 85 84 85 85 84 84 86 84 81 82 85 87 88 88 86 85 84 83 82 81 80 80 79 79 78 77 77 75 75 75 76 75 75 74 73 73 71 71 70 71 72 70 68
67 68 67 69 65 64 64 64 65 67 70 72 70 68 70 72 76 78 79 80 80 79 79 80 81 82 84 84 83 82 82 81 83 84 83 84 84 84 83 81 81 82 84 87 89 87 87 86 84 83 80 80 80 80 80 80 78 77 77 76 76 73 73 75 74 73 73 72 72 71 72 71 71 74
71 72 68 68 70 73 73 74 75 75 75 75 77 76 75 75 76 77 78 78 80 81 81 81 81 81 81 81 82 83 83 83 83 84 83 82 83 84 83 81 81 82 83 84 86 87 85 85 84 83 82 81 79 80 80 79 78 78 78 77 76 76 74 75 73 72 73 72 71 69 69 70 69 70
71 71 71 71 72 73 73 74 76 78 79 79 79 80 79 79 79 78 78 78 79 80 79 79 79 79 80 81 82 82 82 82 83 84 83 82 82 82 83 81 82 81 81 82 82 83 84 84 84 84 83 82 82 81 79 77 78 79 78 77 76 74 75 75 75 73 72 71 70 70 68 70 71 71
68 70 69 70 71 72 73 73 75 77 79 80 81 81 75 80 82 81 79 80 80 81 80 80 79 79 80 80 81 81 81 82 83 83 78 82 82 80 81 80 81 82 81 82 82 82 82 83 83 82 83 82 83 82 81 79 77 78 78 78 76 75 74 75 74 73 72 72 70 69 68 69 71 71
67 68 69 70 70 71 71 71 72 74 75 75 76 77 78 78 79 78 81 82 80 79 80 79 80 80 80 80 81 81 81 81 82 83 82 82 82 82 81 81 81 81 81 81 82 81 82 81 80 80 79 79 79 80 79 82 79 78 78 78 78 77 74 74 74 72 72 70 71 69 69 68 69 71
67 69 69 69 70 70 70 71 72 72 73 73 73 73 72 72 74 75 76 78 82 81 81 80 79 80 80 80 80 81 81 80 82 82 82 83 82 82 83 82 81 81 82 82 82 83 82 81 80 78 76 75 75 74 76 76 78 81 77 77 77 77 74 74 73 72 71 71 70 70 69 68 69 71
66 69 70 70 70 71 71 72 72 72 73 73 72 72 72 72 72 73 74 72 74 75 79 80 81 81 80 80 79 78 79 80 81 81 82 83 83 82 82 81 80 80 81 82 83 83 82 81 80 79 77 75 73 72 75 79 71 73 81 78 77 77 74 73 71 70 71 71 70 71 71 70 70 71
67 69 71 71 71 72 72 72 72 72 72 72 72 72 72 72 73 73 74 73 72 72 73 74 77 80 83 81 81 81 81 82 81 81 81 82 82 82 82 82 82 81 81 82 82 82 83 82 81 79 78 76 74 74 74 77 77 72 70 78 78 78 75 73 71 70 69 71 71 72 72 71 71 71
67 70 71 72 73 74 73 72 72 72 73 72 72 72 72 72 73 73 72 72 72 72 74 75 76 76 81 83 82 81 81 81 81 81 81 82 82 82 82 82 82 82 82 81 82 83 82 82 81 80 79 77 76 77 79 77 76 80 73 65 77 78 76 75 74 72 71 70 71 71 73 71 66 67
67 70 72 73 74 75 76 76 74 74 73 73 73 73 73 72 72 73 72 72 72 73 74 73 74 74 78 84 83 84 83 82 81 82 82 82 81 81 82 82 82 82 81 81 81 82 82 82 82 81 81 81 82 83 81 79 79 80 79 68 63 75 79 76 75 73 71 72 72 70 70 68 70 68
70 70 72 73 75 76 76 77 79 78 76 75 75 71 73 73 73 73 73 74 73 74 74 75 74 76 80 84 84 84 83 82 83 83 83 82 80 80 79 75 80 82 81 81 81 81 82 83 83 76 81 79 79 78 77 77 76 77 76 77 63 62 69 72 78 75 73 72 72 71 71 69 69 65
75 74 74 75 75 76 77 78 79 80 81 80 77 75 74 73 73 69 72 72 74 75 74 74 75 76 79 83 83 80 78 78 77 77 79 80 82 79 77 78 80 81 81 80 81 83 85 84 81 76 73 73 72 71 72 74 76 77 76 75 76 64 61 62 65 69 77 75 72 70 70 70 69 66
75 75 75 76 76 77 77 77 78 80 80 81 78 79 76 74 73 73 73 74 75 74 75 76 78 77 78 76 73 70 70 70 71 72 72 72 72 73 73 75 78 79 81 80 83 84 84 82 77 77 74 72 72 73 73 76 77 77 77 76 75 74 72 64 59 59 63 68 69 73 75 73 69 66
68 68 69 69 70 70 71 73 74 75 77 78 77 75 72 71 71 72 73 73 74 75 75 73 72 72 72 72 72 72 72 71 71 72 72 72 72 72 72 72 71 71 73 72 76 82 84 83 77 78 76 74 75 75 75 76 76 77 78 78 75 74 72 73 71 64 62 62 62 65 69 69 71 71
66 66 66 66 67 69 70 70 70 71 72 72 72 73 72 72 70 72 74 76 78 78 76 73 71 72 72 72 72 71 72 68 70 72 71 71 71 71 72 72 71 71 72 75 75 75 79 82 82 79 79 78 77 76 76 76 76 76 76 77 75 74 74 72 71 70 70 72 67 61 63 64 66 66
MSLP
1019.19 1019.35 1019.47 1019.67 1019.67 1019.47 1019.15 1019.19 1019.15 1019.27 1019.27 1019.43 1019.59 1019.71 1020.67 1021.15 1022.47 1023.11 1022.79 1021.75 1021.27 1019.67 1018.75 1020.11 1019.27 1018.35 1018.31 1018.31 1017.83 1017.99 1018.03 1017.99 1017.99 1017.91 1017.99 1018.35 1018.47 1018.63 1018.75 1018.67 1018.75 1018.91 1018.99 1018.99 1018.99 1018.99 1018.99 1019.03 1019.07 1019.11 1019.15 1019.11 1019.07 1018.99 1018.91 1018.79 1018.71 1018.67 1018.59 1018.51 1018.39 1018.27 1018.19 1018.15 1018.03 1017.83 1017.67 1017.55 1017.39 1017.23 1017.07 1016.87 1016.71 1016.59
1019.23 1019.19 1019.23 1019.39 1019.71 1019.35 1019.35 1019.43 1019.23 1019.35 1019.47 1019.63 1019.71 1019.71 1019.83 1020.11 1021.59 1021.99 1022.75 1022.51 1020.75 1020.39 1018.87 1018.71 1019.55 1018.63 1018.43 1017.91 1017.95 1017.79 1017.99 1017.87 1017.79 1017.83 1017.87 1018.03 1018.23 1018.35 1018.47 1018.47 1018.55 1018.71 1018.79 1018.87 1018.91 1018.91 1018.91 1018.87 1018.95 1019.03 1019.11 1019.11 1019.07 1018.99 1018.91 1018.79 1018.71 1018.67 1018.63 1018.55 1018.39 1018.31 1018.23 1018.19 1018.03 1017.83 1017.71 1017.59 1017.39 1017.23 1017.03 1016.87 1016.71 1016.59
1019.23 1019.43 1019.47 1019.27 1019.47 1019.27 1019.31 1019.23 1019.23 1019.23 1019.47 1019.67 1019.63 1019.71 1019.63 1019.95 1020.35 1021.07 1021.63 1022.71 1020.71 1019.55 1020.31 1019.15 1018.31 1018.63 1018.23 1017.67 1017.71 1017.71 1017.91 1017.79 1017.71 1017.75 1017.79 1017.75 1017.91 1018.11 1018.23 1018.27 1018.35 1018.43 1018.59 1018.75 1018.83 1018.87 1018.87 1018.83 1018.83 1018.91 1018.99 1018.99 1018.99 1018.95 1018.87 1018.79 1018.71 1018.67 1018.63 1018.55 1018.43 1018.35 1018.27 1018.23 1018.07 1017.91 1017.79 1017.63 1017.43 1017.27 1017.07 1016.91 1016.75 1016.59
1019.11 1019.35 1019.63 1019.55 1019.51 1019.35 1019.31 1019.35 1019.23 1019.27 1019.31 1019.47 1019.75 1019.71 1019.75 1019.91 1019.99 1020.39 1021.19 1021.99 1022.03 1019.87 1019.83 1019.43 1018.71 1018.03 1018.15 1017.75 1018.11 1018.07 1017.87 1017.59 1017.63 1017.67 1017.63 1017.55 1017.75 1017.95 1018.07 1018.15 1018.11 1018.27 1018.39 1018.55 1018.67 1018.79 1018.79 1018.71 1018.67 1018.71 1018.79 1018.83 1018.87 1018.87 1018.83 1018.79 1018.71 1018.67 1018.63 1018.59 1018.51 1018.43 1018.31 1018.27 1018.11 1017.95 1017.87 1017.67 1017.47 1017.27 1017.15 1016.95 1016.75 1016.63
1018.99 1019.27 1019.55 1019.59 1019.47 1019.31 1019.63 1019.59 1019.43 1019.35 1019.35 1019.43 1019.55 1019.59 1019.67 1019.99 1019.91 1020.35 1021.03 1021.79 1021.67 1020.31 1019.03 1019.19 1019.11 1018.27 1018.07 1018.47 1018.03 1018.35 1018.15 1018.03 1017.87 1017.59 1017.51 1017.43 1017.63 1017.75 1017.83 1017.95 1018.07 1018.11 1018.27 1018.35 1018.43 1018.59 1018.63 1018.59 1018.47 1018.51 1018.59 1018.67 1018.71 1018.75 1018.79 1018.75 1018.71 1018.67 1018.67 1018.63 1018.59 1018.47 1018.39 1018.27 1018.15 1017.99 1017.91 1017.71 1017.51 1017.35 1017.19 1016.95 1016.75 1016.63
1019.11 1019.15 1019.47 1019.59 1019.51 1019.35 1019.67 1019.63 1019.63 1019.47 1019.31 1019.43 1019.71 1019.75 1019.79 1019.91 1019.99 1019.67 1020.67 1021.15 1021.47 1021.59 1020.03 1019.75 1018.75 1018.71 1018.15 1019.03 1017.87 1018.43 1018.47 1018.31 1017.83 1017.91 1017.71 1017.43 1017.11 1017.27 1017.51 1017.71 1017.87 1017.99 1018.07 1018.11 1018.23 1018.35 1018.43 1018.43 1018.31 1018.31 1018.39 1018.51 1018.59 1018.67 1018.71 1018.71 1018.71 1018.67 1018.63 1018.63 1018.55 1018.51 1018.43 1018.35 1018.19 1018.07 1017.99 1017.83 1017.59 1017.39 1017.19 1016.95 1016.75 1016.63
1019.23 1019.39 1019.47 1019.59 1019.51 1019.35 1019.67 1019.71 1019.63 1019.35 1019.39 1019.15 1019.43 1019.59 1019.51 1019.79 1019.67 1019.55 1019.63 1020.47 1021.27 1021.35 1020.87 1019.63 1019.67 1019.19 1018.75 1018.79 1018.63 1018.11 1017.99 1017.87 1017.75 1018.03 1017.91 1017.71 1017.23 1016.99 1017.07 1017.47 1017.47 1017.67 1017.79 1017.91 1018.07 1018.15 1018.23 1018.23 1018.19 1018.15 1018.19 1018.31 1018.43 1018.51 1018.59 1018.63 1018.63 1018.59 1018.59 1018.55 1018.55 1018.51 1018.47 1018.39 1018.27 1018.15 1018.07 1017.91 1017.67 1017.47 1017.27 1016.99 1016.79 1016.63
1019.23 1019.43 1019.59 1019.55 1019.43 1019.39 1019.63 1019.67 1019.71 1019.55 1019.39 1019.35 1019.39 1019.51 1019.39 1019.39 1019.47 1019.27 1019.43 1019.55 1020.35 1020.67 1021.15 1020.19 1019.95 1019.27 1019.31 1018.83 1018.23 1018.03 1017.83 1017.87 1017.83 1017.79 1017.63 1017.31 1017.47 1017.23 1016.99 1016.99 1017.19 1017.35 1017.55 1017.75 1017.91 1017.95 1018.03 1018.11 1018.07 1017.99 1018.03 1018.11 1018.23 1018.35 1018.47 1018.55 1018.51 1018.47 1018.47 1018.47 1018.47 1018.51 1018.47 1018.43 1018.35 1018.23 1018.15 1017.99 1017.75 1017.51 1017.35 1017.07 1016.83 1016.59
1019.03 1019.19 1019.43 1019.39 1019.35 1019.39 1019.67 1019.59 1019.63 1019.55 1019.67 1019.47 1019.39 1019.43 1019.27 1019.31 1019.19 1019.11 1019.27 1019.59 1019.71 1020.31 1020.79 1020.43 1019.55 1019.15 1019.03 1018.63 1018.43 1018.11 1018.55 1018.27 1017.95 1017.71 1017.83 1017.71 1017.55 1017.39 1017.03 1016.87 1016.83 1017.15 1017.47 1017.67 1017.79 1017.79 1017.87 1017.95 1017.91 1017.91 1017.95 1017.99 1018.07 1018.19 1018.31 1018.39 1018.39 1018.35 1018.35 1018.35 1018.39 1018.43 1018.47 1018.43 1018.39 1018.31 1018.19 1017.99 1017.75 1017.55 1017.39 1017.11 1016.87 1016.59
1018.63 1018.87 1019.03 1019.07 1019.11 1019.31 1019.59 1019.59 1019.43 1019.39 1019.59 1019.51 1019.55 1019.51 1019.35 1019.19 1019.15 1019.35 1019.39 1019.39 1019.63 1019.87 1020.19 1020.23 1020.23 1019.43 1019.51 1019.23 1018.83 1018.23 1018.11 1018.55 1018.75 1018.51 1018.07 1017.75 1017.63 1017.63 1017.59 1017.23 1016.91 1017.11 1017.47 1017.71 1017.67 1017.67 1017.71 1017.71 1017.67 1017.75 1017.83 1017.87 1017.87 1017.99 1018.11 1018.23 1018.27 1018.23 1018.23 1018.23 1018.31 1018.39 1018.43 1018.47 1018.39 1018.31 1018.19 1018.03 1017.79 1017.59 1017.39 1017.15 1016.91 1016.59
1018.31 1018.43 1018.55 1018.71 1018.79 1019.03 1019.11 1019.31 1019.35 1019.31 1019.39 1019.47 1019.55 1019.47 1019.43 1019.23 1019.39 1019.55 1019.63 1019.63 1019.79 1019.95 1020.19 1020.03 1019.79 1019.83 1019.15 1019.07 1019.43 1018.27 1017.71 1017.95 1018.27 1018.91 1018.99 1018.95 1017.95 1017.59 1017.67 1017.87 1017.11 1016.71 1017.11 1016.95 1016.87 1016.83 1016.95 1016.99 1017.23 1017.43 1017.63 1017.71 1017.71 1017.83 1017.99 1018.07 1018.11 1018.11 1018.11 1018.11 1018.19 1018.27 1018.39 1018.43 1018.35 1018.27 1018.15 1017.99 1017.79 1017.59 1017.39 1017.23 1016.95 1016.67
1018.03 1018.03 1018.15 1018.23 1018.31 1018.47 1018.59 1018.79 1018.91 1018.99 1019.31 1019.27 1019.55 1019.27 1019.27 1019.35 1019.51 1019.71 1019.63 1019.71 1019.87 1020.07 1020.15 1020.23 1020.19 1019.67 1019.59 1019.11 1018.51 1018.03 1018.07 1018.63 1018.55 1018.19 1018.63 1019.35 1018.91 1018.31 1017.59 1017.39 1017.55 1016.99 1016.79 1017.07 1016.75 1016.63 1016.75 1016.91 1016.99 1017.19 1017.39 1017.43 1017.51 1017.71 1017.87 1017.95 1017.95 1017.99 1018.03 1017.99 1018.03 1018.15 1018.23 1018.31 1018.31 1018.23 1018.07 1017.95 1017.79 1017.59 1017.35 1017.15 1016.99 1016.71
1017.71 1017.75 1017.67 1017.67 1017.71 1017.75 1017.99 1018.15 1018.31 1018.43 1018.55 1018.99 1019.47 1019.27 1019.19 1019.39 1019.59 1019.79 1019.79 1019.83 1019.95 1020.03 1020.15 1020.19 1019.71 1019.79 1019.71 1019.31 1019.19 1019.19 1019.15 1019.27 1019.11 1018.15 1017.99 1018.47 1018.03 1017.75 1017.83 1017.39 1016.75 1016.75 1017.03 1016.83 1016.55 1016.47 1016.51 1016.79 1016.87 1016.99 1017.23 1017.07 1017.27 1017.51 1017.59 1017.71 1017.75 1017.79 1017.83 1017.87 1017.91 1017.99 1018.07 1018.15 1018.15 1018.11 1017.99 1017.87 1017.71 1017.55 1017.31 1017.15 1016.95 1016.75
1017.47 1017.43 1017.43 1017.23 1017.23 1017.35 1017.55 1017.75 1017.91 1018.11 1018.23 1018.31 1018.55 1018.79 1018.91 1019.19 1019.51 1019.75 1019.95 1020.11 1020.07 1020.15 1020.35 1020.23 1020.03 1020.15 1019.99 1019.55 1019.19 1019.19 1018.63 1018.07 1017.79 1018.03 1018.15 1018.63 1017.99 1017.83 1018.07 1017.63 1016.99 1016.39 1016.67 1016.99 1017.11 1016.51 1015.91 1016.15 1016.51 1016.71 1016.83 1016.47 1016.71 1016.95 1017.27 1017.19 1017.31 1017.47 1017.59 1017.63 1017.71 1017.83 1017.87 1017.99 1017.99 1017.95 1017.87 1017.75 1017.63 1017.47 1017.31 1017.11 1016.91 1016.75
1017.51 1017.23 1017.03 1017.03 1017.03 1017.07 1017.23 1017.35 1017.51 1017.67 1017.83 1017.99 1018.11 1018.23 1018.39 1018.55 1018.99 1019.47 1019.83 1019.95 1019.83 1020.11 1020.19 1019.83 1019.83 1019.91 1019.91 1019.35 1018.63 1018.51 1018.15 1017.75 1017.83 1017.83 1017.75 1018.03 1018.19 1018.55 1018.91 1019.31 1017.63 1016.11 1016.47 1016.99 1017.15 1016.79 1015.75 1015.87 1016.51 1016.35 1016.27 1016.03 1016.15 1016.31 1016.43 1016.55 1016.83 1017.11 1017.31 1017.39 1017.51 1017.63 1017.71 1017.75 1017.79 1017.79 1017.71 1017.67 1017.55 1017.39 1017.23 1017.07 1016.87 1016.71
1017.23 1017.27 1017.11 1016.83 1016.55 1016.59 1016.75 1016.95 1017.23 1017.43 1017.51 1017.63 1017.75 1017.83 1017.99 1018.15 1018.31 1018.51 1019.07 1019.55 1019.75 1019.75 1019.99 1019.95 1019.67 1019.55 1019.51 1019.11 1018.59 1018.31 1018.03 1017.95 1017.71 1017.59 1017.63 1017.87 1018.19 1018.43 1018.63 1018.55 1018.79 1016.79 1015.87 1016.87 1017.23 1017.07 1015.79 1015.63 1016.07 1016.15 1015.59 1015.19 1015.43 1015.47 1015.63 1016.15 1016.43 1016.83 1017.07 1017.19 1017.35 1017.43 1017.43 1017.51 1017.59 1017.63 1017.59 1017.55 1017.47 1017.31 1017.15 1017.07 1016.87 1016.67
1016.95 1016.95 1017.07 1017.07 1016.75 1016.27 1016.19 1016.31 1016.47 1016.87 1017.19 1017.23 1017.31 1017.43 1017.59 1017.75 1017.87 1018.11 1018.31 1018.51 1018.87 1018.95 1019.39 1019.55 1019.39 1019.15 1018.91 1018.95 1018.47 1017.79 1017.63 1017.27 1017.95 1017.71 1017.91 1017.79 1017.83 1017.91 1018.19 1018.03 1017.67 1016.79 1015.79 1016.55 1017.31 1017.55 1016.15 1015.75 1016.07 1016.15 1015.31 1014.83 1014.83 1015.11 1015.47 1015.75 1016.19 1016.55 1016.83 1016.99 1017.07 1017.11 1017.15 1017.27 1017.39 1017.47 1017.47 1017.43 1017.39 1017.27 1017.19 1017.11 1016.91 1016.71
1016.47 1016.59 1016.75 1016.91 1016.91 1016.59 1016.39 1016.35 1016.51 1016.67 1016.83 1017.07 1017.39 1017.63 1017.79 1017.87 1017.75 1017.75 1017.91 1018.11 1018.31 1018.59 1018.83 1018.99 1019.23 1018.35 1017.95 1018.35 1017.83 1017.19 1016.95 1017.55 1017.99 1017.99 1018.11 1017.71 1017.87 1017.87 1017.87 1017.07 1016.79 1016.07 1015.51 1016.67 1017.03 1017.47 1016.43 1015.63 1015.91 1016.03 1015.19 1014.63 1015.03 1015.11 1015.27 1015.71 1016.11 1016.39 1016.63 1016.75 1016.75 1016.79 1016.87 1017.03 1017.15 1017.23 1017.27 1017.27 1017.27 1017.23 1017.19 1017.11 1016.95 1016.79
1015.95 1016.03 1016.07 1016.23 1016.39 1016.35 1016.31 1016.19 1016.23 1016.47 1016.71 1016.99 1017.27 1017.47 1017.63 1017.59 1017.47 1017.43 1017.47 1017.55 1017.63 1017.83 1017.99 1018.11 1018.07 1017.83 1017.51 1017.35 1017.11 1016.91 1016.71 1016.87 1016.99 1016.99 1017.23 1017.19 1017.19 1016.95 1016.51 1016.51 1016.23 1016.15 1015.47 1015.79 1016.59 1018.03 1016.35 1015.31 1015.91 1015.71 1015.07 1014.87 1015.19 1015.31 1015.67 1015.75 1015.91 1016.23 1016.47 1016.43 1016.47 1016.51 1016.59 1016.79 1016.91 1016.99 1016.99 1017.07 1017.11 1017.15 1017.11 1017.11 1017.03 1016.87
1015.47 1015.51 1015.63 1015.83 1015.91 1015.87 1015.91 1015.79 1015.79 1015.95 1016.15 1016.59 1017.03 1017.31 1017.27 1017.27 1017.07 1016.99 1016.55 1016.51 1016.55 1016.67 1016.75 1016.87 1016.95 1016.79 1016.63 1016.51 1016.51 1016.47 1016.51 1016.51 1016.39 1016.39 1016.27 1016.39 1016.75 1017.23 1017.75 1017.99 1016.91 1016.83 1015.43 1015.15 1016.15 1016.91 1016.47 1015.11 1015.75 1015.47 1014.55 1014.75 1015.55 1015.67 1015.83 1015.91 1015.95 1016.11 1016.15 1016.15 1016.27 1016.35 1016.39 1016.55 1016.67 1016.75 1016.79 1016.79 1016.95 1017.03 1016.99 1017.03 1016.99 1016.91
1015.23 1015.19 1015.19 1015.35 1015.47 1015.51 1015.55 1015.39 1015.47 1015.59 1015.83 1016.27 1016.63 1016.87 1016.99 1016.87 1016.83 1016.71 1016.15 1015.99 1016.03 1016.07 1016.11 1016.11 1016.07 1016.07 1016.11 1016.11 1016.11 1016.11 1016.11 1016.19 1016.19 1016.51 1017.15 1017.47 1016.99 1017.71 1018.23 1017.75 1017.31 1016.79 1015.67 1014.95 1014.99 1015.83 1016.35 1015.27 1015.31 1015.35 1014.71 1014.59 1015.31 1015.51 1015.55 1015.63 1015.83 1015.99 1015.95 1015.99 1016.07 1016.15 1016.19 1016.31 1016.43 1016.55 1016.55 1016.55 1016.67 1016.83 1016.79 1016.79 1016.83 1016.79
1014.83 1014.83 1014.87 1014.91 1015.03 1015.15 1015.11 1014.99 1015.15 1015.31 1015.59 1016.03 1016.19 1016.43 1016.63 1016.75 1016.71 1016.39 1015.87 1015.63 1015.43 1015.35 1015.39 1015.47 1015.51 1015.55 1015.63 1015.71 1015.79 1015.87 1015.99 1016.07 1016.23 1016.79 1017.63 1016.71 1016.67 1017.35 1017.31 1017.63 1016.95 1016.23 1015.59 1014.99 1014.15 1015.39 1015.55 1014.79 1014.63 1015.15 1014.55 1014.35 1014.39 1014.79 1015.03 1015.35 1015.63 1015.83 1015.91 1015.87 1015.91 1015.99 1016.07 1016.11 1016.27 1016.35 1016.35 1016.31 1016.35 1016.47 1016.55 1016.51 1016.51 1016.63
1014.51 1014.51 1014.43 1014.47 1014.55 1014.67 1014.59 1014.63 1014.75 1014.95 1015.27 1015.59 1015.71 1015.91 1016.27 1016.51 1016.43 1015.87 1015.59 1015.75 1015.63 1015.47 1015.67 1015.79 1015.79 1015.87 1015.71 1015.67 1015.75 1015.63 1015.63 1015.71 1015.83 1015.87 1015.99 1015.91 1016.51 1016.99 1016.83 1016.67 1016.67 1016.99 1015.99 1014.39 1013.63 1015.39 1015.11 1015.03 1014.59 1014.79 1015.47 1015.91 1014.47 1014.35 1014.75 1015.11 1015.35 1015.51 1015.59 1015.83 1015.95 1015.95 1015.99 1016.03 1016.11 1016.27 1016.23 1016.11 1016.11 1016.19 1016.19 1016.19 1016.11 1016.19
1014.55 1014.35 1014.27 1014.07 1014.07 1014.15 1014.23 1014.31 1014.39 1014.51 1014.71 1014.99 1015.07 1015.31 1015.83 1016.03 1015.91 1014.99 1015.19 1015.15 1015.19 1015.23 1015.19 1015.19 1015.11 1015.15 1014.91 1014.95 1015.07 1015.19 1015.23 1015.23 1015.31 1015.39 1015.31 1015.39 1015.63 1016.07 1016.19 1016.15 1016.27 1016.63 1015.67 1013.91 1013.19 1014.59 1014.23 1014.07 1014.63 1013.79 1014.47 1015.63 1015.91 1015.19 1014.91 1015.11 1015.07 1015.19 1015.27 1015.43 1015.63 1015.67 1015.91 1016.03 1016.11 1016.19 1016.23 1016.11 1015.95 1015.99 1016.03 1015.95 1015.79 1015.75
1014.23 1014.15 1013.95 1013.67 1013.55 1013.67 1013.75 1013.83 1013.91 1014.03 1014.23 1014.35 1014.51 1014.71 1015.03 1014.75 1014.27 1014.31 1014.91 1014.83 1014.75 1014.99 1014.95 1014.87 1014.75 1014.75 1014.75 1014.75 1014.63 1014.67 1014.67 1014.59 1014.47 1014.51 1014.63 1014.67 1014.71 1015.15 1015.55 1015.67 1015.63 1015.43 1014.47 1013.35 1012.95 1013.79 1014.59 1013.87 1014.23 1013.83 1014.07 1014.15 1014.19 1014.71 1014.83 1014.75 1014.83 1014.95 1014.83 1014.87 1015.11 1015.27 1015.67 1015.79 1015.87 1016.07 1016.19 1016.19 1016.03 1015.91 1015.95 1015.91 1015.79 1015.75
1013.91 1013.75 1013.63 1013.43 1013.11 1013.15 1013.27 1013.35 1013.43 1013.47 1013.67 1013.95 1014.35 1014.03 1013.75 1013.71 1014.03 1014.27 1014.27 1014.47 1014.63 1014.79 1014.79 1014.75 1014.67 1014.47 1014.51 1014.55 1014.43 1014.23 1014.07 1013.95 1013.87 1013.83 1013.79 1013.79 1013.83 1013.75 1013.83 1014.23 1014.79 1015.07 1014.35 1012.67 1012.63 1013.19 1013.83 1014.07 1013.75 1014.11 1014.03 1014.35 1014.27 1013.95 1014.75 1015.07 1014.59 1014.51 1014.55 1014.47 1014.51 1014.63 1014.91 1015.27 1015.55 1015.75 1015.91 1015.95 1015.91 1015.79 1015.75 1015.75 1015.75 1015.75
1013.23 1012.99 1013.07 1013.35 1013.75 1013.39 1013.19 1012.99 1012.95 1013.11 1013.43 1013.91 1013.75 1013.35 1013.47 1013.67 1013.75 1014.03 1014.27 1014.39 1014.67 1014.79 1014.75 1014.79 1014.79 1014.47 1014.23 1014.15 1013.99 1013.83 1013.71 1013.35 1013.11 1013.07 1012.91 1012.79 1012.87 1012.95 1012.75 1012.55 1012.59 1012.87 1012.43 1012.23 1012.11 1012.35 1012.87 1013.35 1012.83 1013.51 1014.03 1013.83 1014.43 1014.23 1014.27 1014.55 1014.67 1014.27 1014.47 1014.31 1014.15 1014.19 1014.31 1014.63 1015.03 1015.19 1015.39 1015.59 1015.59 1015.51 1015.71 1015.75 1015.71 1015.67
1012.75 1012.71 1012.71 1012.91 1013.15 1013.31 1013.35 1013.51 1013.43 1013.19 1012.91 1012.71 1012.67 1013.03 1013.15 1013.27 1013.55 1014.03 1014.27 1014.47 1014.59 1014.71 1014.79 1014.87 1014.71 1014.47 1013.99 1013.67 1013.47 1013.27 1012.95 1012.75 1012.55 1012.39 1012.11 1011.95 1011.83 1012.03 1012.07 1011.95 1011.91 1011.71 1011.71 1011.75 1011.75 1011.83 1012.07 1012.67 1012.79 1012.55 1012.87 1013.59 1014.23 1014.71 1014.75 1013.63 1013.51 1014.03 1014.23 1013.91 1013.75 1013.83 1013.91 1013.99 1014.35 1014.55 1014.83 1014.99 1015.19 1015.43 1015.71 1015.71 1015.63 1015.63
1012.71 1012.47 1012.71 1012.79 1012.71 1012.63 1012.87 1013.07 1013.31 1013.39 1013.03 1012.51 1012.07 1012.15 1012.51 1012.95 1013.47 1013.83 1014.15 1014.27 1014.35 1014.67 1014.67 1014.59 1014.35 1014.03 1013.67 1013.31 1012.87 1012.47 1012.27 1012.07 1011.91 1011.99 1011.79 1011.47 1011.31 1011.27 1011.35 1011.31 1011.27 1011.31 1011.27 1011.19 1011.31 1011.39 1011.59 1011.91 1012.31 1012.23 1012.51 1012.75 1013.51 1013.55 1013.71 1013.95 1013.55 1013.95 1013.79 1014.11 1014.39 1013.71 1013.55 1013.51 1013.63 1013.99 1014.27 1014.47 1014.75 1015.03 1015.27 1015.35 1015.59 1015.47
1013.15 1013.03 1012.99 1012.87 1012.75 1012.71 1012.71 1012.87 1012.95 1013.11 1013.23 1013.35 1012.79 1011.87 1011.83 1012.63 1012.91 1013.19 1013.51 1013.83 1014.23 1014.39 1014.23 1014.15 1014.03 1013.55 1013.15 1012.87 1012.43 1012.19 1012.07 1012.27 1012.31 1012.15 1012.11 1011.99 1011.79 1011.51 1011.71 1011.99 1011.75 1011.15 1010.87 1010.75 1010.79 1010.91 1011.07 1011.35 1011.55 1011.87 1012.31 1012.47 1012.55 1013.03 1012.99 1013.35 1013.47 1013.03 1013.27 1013.51 1013.39 1013.15 1013.11 1013.23 1013.39 1013.47 1013.75 1014.07 1014.23 1014.47 1014.55 1014.71 1015.03 1015.23
1013.19 1013.03 1012.95 1012.83 1012.63 1012.51 1012.35 1012.39 1012.27 1012.27 1012.43 1012.79 1013.07 1013.11 1012.31 1012.03 1012.15 1012.43 1012.83 1013.15 1013.47 1013.59 1013.75 1013.63 1013.39 1013.07 1012.71 1012.35 1012.39 1012.35 1012.27 1012.19 1011.79 1011.59 1011.79 1011.91 1011.75 1011.63 1011.51 1011.75 1011.87 1011.63 1010.87 1010.35 1010.23 1010.31 1010.51 1010.67 1010.87 1011.23 1012.19 1012.27 1012.19 1012.23 1012.19 1012.31 1012.87 1012.83 1012.75 1012.71 1012.91 1013.71 1012.99 1012.87 1013.03 1013.23 1013.35 1013.55 1013.67 1013.83 1014.03 1014.27 1014.47 1014.51
1012.83 1012.91 1012.75 1012.71 1012.55 1012.39 1012.35 1012.19 1012.15 1012.03 1012.03 1012.23 1012.35 1012.35 1012.03 1011.63 1011.51 1011.71 1011.91 1012.11 1012.39 1012.59 1012.75 1012.87 1012.79 1012.75 1012.71 1012.75 1012.23 1011.91 1011.79 1011.47 1011.15 1010.99 1011.27 1011.39 1011.39 1011.19 1011.35 1011.83 1011.75 1011.31 1011.03 1010.55 1010.15 1009.83 1009.79 1009.95 1010.23 1010.43 1010.79 1011.31 1012.03 1011.79 1011.63 1011.91 1012.27 1012.31 1012.31 1012.03 1012.11 1012.11 1012.19 1012.59 1012.83 1012.95 1012.99 1013.23 1013.67 1013.83 1013.91 1014.07 1014.31 1014.31
1012.59 1012.75 1012.83 1012.75 1012.55 1012.39 1012.23 1012.03 1011.83 1011.55 1011.59 1011.67 1011.59 1011.51 1011.43 1011.19 1011.07 1011.27 1011.63 1012.03 1012.03 1012.07 1012.39 1012.59 1012.67 1012.67 1012.55 1012.31 1011.87 1011.67 1011.35 1010.91 1010.67 1010.35 1010.59 1010.47 1010.83 1010.79 1010.95 1011.31 1011.11 1011.19 1011.23 1010.91 1010.47 1010.07 1009.79 1009.67 1009.55 1009.79 1010.07 1010.27 1010.43 1010.87 1011.59 1012.31 1011.95 1011.67 1011.95 1011.83 1011.79 1012.11 1012.15 1012.03 1012.23 1012.59 1012.75 1013.23 1013.55 1013.67 1013.91 1013.87 1013.87 1013.99
1012.87 1012.91 1013.07 1012.83 1012.63 1012.35 1012.03 1011.67 1011.31 1011.19 1011.23 1011.27 1011.23 1010.87 1010.55 1010.39 1010.23 1010.15 1010.31 1010.47 1010.71 1011.03 1011.43 1011.59 1011.95 1011.95 1012.03 1011.91 1011.55 1011.31 1010.91 1010.39 1010.15 1009.87 1010.03 1010.15 1010.11 1010.67 1010.79 1010.87 1010.59 1010.27 1010.31 1010.35 1010.19 1010.07 1009.83 1009.59 1009.59 1009.63 1009.67 1009.79 1009.63 1009.87 1010.43 1011.39 1011.71 1011.43 1011.23 1011.31 1011.47 1011.79 1011.59 1011.67 1011.87 1012.03 1012.23 1012.59 1013.07 1013.63 1013.87 1013.87 1013.59 1013.47
1012.67 1012.87 1012.99 1012.75 1012.47 1012.11 1011.79 1011.39 1010.83 1010.47 1010.55 1010.63 1010.79 1010.79 1010.55 1010.23 1009.95 1009.63 1009.31 1009.11 1009.23 1009.75 1010.39 1010.87 1011.07 1011.19 1011.35 1011.15 1010.87 1010.75 1010.27 1010.07 1009.79 1009.63 1009.43 1009.47 1009.67 1009.87 1009.99 1010.15 1009.95 1009.87 1009.87 1009.83 1009.75 1009.51 1009.43 1009.63 1009.83 1010.35 1010.47 1010.51 1010.67 1009.95 1009.23 1009.59 1010.75 1010.87 1010.87 1010.91 1010.83 1011.07 1011.27 1011.27 1011.55 1011.87 1012.03 1012.39 1012.55 1013.19 1013.47 1013.63 1013.59 1013.15
1012.31 1012.35 1012.55 1012.39 1012.23 1012.03 1011.83 1011.23 1010.59 1010.15 1010.07 1010.15 1010.27 1010.43 1010.71 1010.67 1010.43 1010.43 1010.11 1009.47 1009.15 1008.87 1009.19 1009.95 1010.51 1010.67 1010.67 1010.43 1010.15 1009.87 1009.63 1009.55 1009.43 1009.31 1009.27 1009.15 1009.15 1009.15 1009.03 1008.99 1008.99 1009.07 1009.07 1009.11 1009.11 1008.91 1009.03 1009.31 1009.63 1010.43 1011.15 1011.35 1011.59 1011.67 1010.75 1008.71 1008.83 1009.59 1010.59 1010.79 1010.43 1010.47 1010.63 1010.87 1011.03 1011.31 1011.75 1012.03 1012.11 1012.51 1013.15 1013.39 1013.27 1012.95
1011.79 1011.67 1011.67 1011.63 1011.51 1011.51 1011.35 1010.91 1010.43 1009.91 1009.71 1009.75 1009.75 1009.83 1010.03 1010.11 1009.91 1009.87 1009.59 1009.51 1009.31 1008.83 1008.43 1008.87 1009.55 1009.83 1009.91 1009.83 1009.63 1009.31 1009.11 1009.15 1009.07 1008.71 1008.67 1008.39 1008.39 1008.43 1008.55 1008.39 1008.39 1008.43 1008.55 1008.31 1008.19 1008.35 1008.47 1008.95 1009.03 1009.67 1010.47 1011.07 1011.51 1011.43 1010.11 1008.79 1008.47 1008.19 1009.15 1009.99 1010.03 1009.91 1010.23 1010.55 1011.03 1011.43 1011.19 1011.23 1011.63 1011.75 1011.99 1012.39 1012.63 1012.51
1011.15 1010.99 1010.99 1010.79 1010.75 1010.75 1010.63 1010.39 1010.15 1009.87 1009.63 1009.51 1009.39 1009.31 1009.23 1009.11 1009.11 1009.11 1008.95 1009.19 1009.07 1008.83 1008.59 1008.71 1008.99 1009.39 1009.15 1008.83 1008.87 1008.63 1008.35 1008.15 1008.07 1008.11 1007.91 1007.91 1008.07 1007.99 1007.87 1007.91 1007.83 1007.79 1007.79 1007.67 1007.63 1007.71 1007.75 1008.15 1008.55 1008.83 1009.39 1010.23 1010.67 1010.51 1010.31 1009.07 1009.03 1008.71 1007.83 1008.35 1009.39 1009.47 1009.51 1010.15 1010.79 1010.95 1010.99 1010.75 1010.79 1010.79 1011.07 1011.59 1011.63 1011.63
1010.59 1010.39 1010.31 1010.11 1009.87 1009.79 1009.83 1009.67 1009.55 1009.43 1009.19 1009.15 1009.03 1008.87 1008.71 1008.55 1008.51 1008.55 1008.55 1008.39 1008.31 1008.39 1008.27 1008.23 1008.71 1009.11 1008.71 1007.83 1007.59 1007.55 1007.63 1007.63 1007.63 1007.39 1007.31 1007.27 1007.27 1007.35 1007.31 1007.19 1007.19 1006.99 1007.15 1007.31 1007.07 1007.11 1007.19 1007.55 1007.67 1008.03 1008.43 1009.07 1009.31 1008.79 1008.43 1008.83 1008.75 1007.55 1007.35 1007.67 1008.15 1008.91 1009.11 1009.23 1009.59 1009.95 1010.35 1010.63 1010.59 1010.47 1010.51 1010.39 1010.59 1010.67
1010.19 1009.99 1009.75 1009.55 1009.31 1009.11 1008.95 1008.79 1008.75 1008.67 1008.71 1008.55 1008.35 1008.11 1008.07 1008.11 1008.11 1008.15 1007.91 1007.79 1007.79 1007.51 1007.47 1007.75 1008.11 1008.47 1007.95 1006.79 1006.59 1006.43 1006.43 1006.51 1006.55 1006.51 1006.59 1006.63 1006.59 1006.59 1006.55 1006.43 1006.55 1006.55 1006.75 1006.75 1006.79 1006.63 1006.63 1006.63 1006.75 1007.07 1007.27 1007.15 1007.03 1006.99 1007.23 1007.43 1007.27 1006.99 1007.15 1007.35 1007.19 1007.39 1007.79 1008.31 1008.91 1009.27 1009.83 1009.75 1010.03 1010.63 1010.87 1010.87 1011.11 1011.03
1009.55 1009.55 1009.23 1008.91 1008.67 1008.43 1008.35 1008.11 1007.87 1007.63 1007.67 1007.63 1007.67 1007.55 1007.51 1007.51 1007.67 1007.51 1007.43 1007.39 1007.31 1007.23 1007.23 1007.11 1007.67 1008.11 1006.99 1005.83 1005.59 1005.75 1005.99 1005.91 1005.83 1005.91 1005.99 1006.07 1006.11 1006.11 1005.99 1006.03 1006.15 1005.99 1006.31 1006.27 1006.07 1006.11 1005.95 1005.43 1005.07 1004.91 1005.47 1006.19 1006.63 1007.03 1007.79 1008.11 1008.39 1007.71 1007.47 1006.87 1006.63 1006.59 1006.51 1006.79 1007.35 1008.07 1008.63 1008.91 1009.43 1009.87 1010.31 1010.63 1010.95 1011.47
1008.83 1008.75 1008.47 1008.19 1008.07 1007.79 1007.67 1007.59 1007.35 1007.11 1006.83 1006.67 1006.79 1006.91 1007.03 1007.31 1007.55 1007.59 1007.59 1007.31 1006.99 1006.91 1007.43 1007.79 1007.59 1007.15 1006.15 1005.23 1005.11 1005.59 1006.31 1006.71 1006.87 1006.71 1006.35 1006.19 1006.11 1005.95 1005.83 1005.79 1005.91 1005.67 1005.87 1005.95 1005.55 1005.19 1004.43 1004.15 1004.43 1004.87 1005.39 1006.07 1006.95 1008.07 1008.43 1007.87 1007.75 1007.39 1007.11 1006.75 1006.43 1006.51 1006.67 1006.63 1006.63 1006.75 1007.15 1007.95 1008.79 1009.63 1009.99 1010.39 1010.51 1011.07
1008.79 1008.47 1008.11 1007.67 1007.35 1007.15 1007.07 1007.03 1006.87 1006.67 1006.47 1006.19 1006.15 1006.23 1006.59 1007.07 1007.19 1007.15 1007.23 1007.35 1007.51 1007.75 1007.63 1007.35 1007.03 1006.95 1006.51 1006.39 1006.83 1007.51 1007.87 1007.91 1007.67 1007.67 1007.83 1007.79 1007.83 1007.67 1007.35 1006.91 1006.23 1005.79 1005.71 1005.43 1004.91 1004.51 1004.39 1004.31 1004.51 1004.75 1005.35 1006.03 1006.39 1006.87 1007.51 1007.03 1006.83 1006.75 1006.79 1006.71 1006.47 1006.27 1006.39 1006.63 1006.79 1006.79 1006.83 1006.71 1006.59 1006.67 1007.19 1008.07 1009.51 1010.27
1009.75 1009.47 1009.11 1008.75 1008.31 1007.91 1007.63 1007.43 1007.27 1006.95 1006.63 1006.35 1006.27 1006.51 1006.95 1007.47 1007.35 1006.91 1006.79 1006.79 1006.71 1006.59 1006.47 1007.15 1007.27 1006.91 1006.35 1005.87 1005.63 1005.55 1005.39 1005.31 1005.63 1006.27 1006.59 1006.71 1006.67 1006.83 1006.79 1006.47 1006.75 1007.07 1006.83 1006.71 1006.07 1004.87 1004.23 1004.19 1004.35 1004.39 1005.11 1005.59 1005.55 1006.11 1006.31 1006.23 1006.27 1005.99 1005.99 1005.87 1005.83 1006.03 1006.35 1006.39 1006.71 1006.83 1006.87 1006.75 1006.63 1006.51 1006.47 1006.43 1006.15 1006.07
1010.35 1010.03 1009.79 1009.47 1009.07 1008.51 1008.03 1007.75 1007.55 1007.39 1007.23 1006.99 1006.83 1006.71 1006.63 1006.71 1006.83 1006.79 1006.83 1006.67 1006.27 1005.87 1005.87 1006.31 1006.75 1006.27 1005.63 1005.03 1004.51 1004.39 1004.51 1004.87 1005.31 1005.55 1005.99 1006.59 1007.03 1007.03 1006.87 1006.67 1006.55 1006.07 1005.55 1004.99 1005.07 1005.11 1004.67 1003.95 1003.55 1003.63 1003.91 1004.03 1004.27 1004.59 1004.79 1005.03 1005.19 1005.31 1005.51 1005.67 1005.83 1005.67 1005.75 1006.07 1006.75 1007.15 1007.07 1006.79 1006.23 1006.31 1006.31 1006.27 1006.35 1006.43
Wind_Speed
4 3 4 2 2 5 3 3 4 4 3 4 3 1 1 2 1 2 2 0 1 4 1 3 0 2 3 5 5 6 5 6 6 1 2 7 5 9 11 9 8 6 5 5 5 5 6 5 5 4 2 1 1 3 4 5 6 7 8 9 10 10 10 11 11 12 13 12 12 12 13 13 13 13
3 3 4 6 4 3 1 1 4 1 1 1 4 1 1 3 0 1 1 2 2 2 2 1 1 2 4 7 5 4 2 7 3 2 0 3 7 11 12 10 10 8 7 6 6 7 7 7 6 5 3 2 1 2 3 4 5 6 8 9 9 10 9 10 11 13 13 12 12 12 12 13 13 13
4 3 3 2 4 3 4 4 4 3 4 2 3 4 1 1 1 0 1 0 2 3 3 2 2 4 8 1 2 3 5 4 4 1 2 1 10 13 10 12 11 10 9 7 7 7 8 8 7 6 6 4 3 3 3 4 5 6 7 8 9 9 9 10 11 12 12 12 11 12 12 13 13 13
3 3 3 3 1 2 2 3 3 3 4 3 4 4 1 1 1 1 1 1 3 2 4 3 4 5 2 1 1 4 2 6 7 2 3 3 10 7 5 10 12 11 10 9 8 9 9 9 9 9 8 6 5 4 3 3 4 5 6 7 8 8 8 9 10 11 12 11 11 12 12 12 13 13
3 4 4 3 2 2 2 3 4 2 3 3 3 3 2 4 3 3 2 2 3 3 3 3 3 3 3 1 1 2 3 2 3 4 3 2 5 6 5 6 10 11 11 11 10 10 10 11 11 10 9 9 7 6 4 3 4 4 6 6 6 7 8 8 9 11 11 11 11 12 12 12 12 12
4 1 3 3 3 3 3 3 4 4 4 5 4 4 4 3 5 4 4 4 2 3 2 4 3 3 2 4 2 1 0 3 1 3 3 4 7 4 6 5 7 12 11 12 12 11 12 12 11 12 11 9 8 7 5 4 4 4 5 5 5 6 7 7 9 10 10 11 11 12 12 12 11 11
3 4 2 3 3 5 5 5 5 5 5 4 5 6 5 5 5 5 6 4 3 3 4 3 3 3 2 2 2 2 3 3 3 4 4 5 4 3 4 7 5 13 14 13 12 12 12 12 12 12 12 10 9 8 6 6 3 4 4 5 5 6 6 7 8 9 10 10 11 11 12 11 11 11
5 5 4 5 5 5 4 5 5 5 5 5 4 3 4 6 7 3 5 3 2 2 3 2 3 2 4 3 2 3 4 3 3 3 2 3 5 3 4 2 5 10 16 12 12 13 13 13 12 12 12 12 10 9 8 6 5 4 4 4 4 4 5 6 7 9 9 10 10 11 11 10 10 11
5 5 5 5 5 5 5 4 5 4 5 5 4 4 3 2 2 1 1 3 4 4 4 4 3 4 4 3 4 4 4 5 2 2 3 2 3 3 1 6 3 8 14 11 12 12 12 12 12 12 12 12 11 10 9 7 6 5 4 3 3 4 5 6 7 7 8 9 10 11 10 9 10 10
5 6 6 6 6 6 6 5 4 4 5 5 6 5 4 3 2 2 3 3 3 3 5 4 5 3 4 3 4 5 5 3 2 3 3 4 4 3 2 2 1 5 5 5 6 9 10 13 14 12 12 12 12 11 10 8 6 5 4 4 4 3 4 5 6 6 6 8 10 11 10 9 9 9
6 7 6 5 6 6 6 6 5 3 4 5 4 5 4 3 3 4 5 4 5 5 5 5 5 5 5 5 5 4 5 5 5 4 3 3 3 3 3 2 3 2 6 9 12 11 11 13 10 12 13 12 13 11 10 9 8 6 7 5 3 3 4 4 4 5 5 8 10 9 8 8 9 10
8 7 8 9 7 7 6 6 5 5 4 4 5 4 4 4 4 4 4 4 5 5 5 6 6 5 5 5 6 3 0 2 3 3 4 6 6 6 3 3 4 4 3 5 7 9 9 8 9 10 11 13 12 11 10 10 8 9 7 6 4 4 4 3 4 4 5 6 7 8 8 8 8 9
7 7 8 8 9 7 10 11 9 7 6 5 5 5 4 4 5 5 5 5 4 5 6 6 5 6 6 5 3 4 5 7 8 5 6 7 5 3 2 4 5 3 3 4 6 5 8 7 6 6 6 8 10 9 11 8 11 9 8 7 4 4 3 2 3 3 5 6 6 7 8 8 9 9
8 9 9 9 11 12 13 14 14 13 11 9 5 3 5 6 5 5 5 6 6 5 6 6 6 6 5 5 5 7 7 6 5 5 4 5 4 3 5 4 2 3 3 3 5 4 3 5 5 6 7 7 9 7 7 7 8 10 11 7 6 6 3 2 2 3 4 5 6 7 7 8 9 8
6 7 7 8 9 9 11 13 16 15 15 14 13 11 8 4 3 4 6 6 5 6 6 6 6 6 6 6 5 4 3 3 4 4 4 5 4 4 2 5 2 2 5 5 4 6 3 3 5 6 8 8 8 8 9 13 14 14 12 10 8 6 4 2 1 2 4 5 6 7 7 7 8 8
6 7 8 7 9 8 8 9 11 13 16 16 16 15 13 13 11 7 4 4 5 7 7 7 6 6 6 6 5 6 6 4 3 1 1 0 0 2 3 3 4 2 2 4 4 8 4 3 5 7 7 5 8 9 12 17 16 14 12 10 10 7 5 3 1 3 4 5 6 7 6 7 7 7
6 5 6 8 7 9 8 10 9 11 12 15 18 17 16 14 13 13 12 9 7 4 5 6 7 7 7 7 6 5 4 2 3 3 3 2 3 3 5 5 5 5 3 3 3 6 7 3 3 7 7 7 4 8 13 18 16 14 13 12 10 9 7 4 3 3 4 4 5 6 6 5 5 6
8 8 7 6 7 7 8 5 4 6 9 9 10 9 9 8 12 14 14 14 13 10 8 8 9 7 5 7 4 4 3 3 5 5 5 3 3 5 6 5 5 4 2 3 3 5 8 5 5 6 5 3 4 5 12 17 15 15 14 13 11 10 8 6 4 4 4 5 5 6 5 4 4 5
7 6 8 8 8 7 6 8 7 4 5 7 7 8 10 10 10 10 11 11 10 10 10 11 12 11 10 9 8 5 4 5 4 4 5 5 5 5 4 4 5 5 4 5 4 7 8 4 5 6 5 5 4 4 9 14 15 15 15 13 11 10 9 8 6 5 4 5 5 5 5 2 1 3
6 7 7 6 6 6 7 9 13 10 5 6 8 9 9 9 10 11 12 15 14 13 12 12 14 13 14 15 12 10 9 6 6 7 7 5 6 7 7 8 6 7 5 8 7 6 6 5 5 4 3 6 5 5 4 9 13 14 14 13 12 11 10 9 7 6 5 5 4 5 5 2 3 5
7 6 5 7 7 8 6 9 12 13 11 6 7 8 9 9 9 9 9 14 19 20 20 20 19 19 19 18 17 18 17 11 8 6 6 7 7 6 8 8 7 7 5 4 6 6 7 6 5 6 4 3 6 7 8 6 10 12 12 12 13 12 11 10 8 7 5 5 5 4 5 3 6 8
9 9 13 10 7 9 9 12 12 13 10 8 9 9 9 9 10 10 9 9 10 20 22 22 23 21 19 18 17 15 13 12 6 7 10 10 7 8 8 9 7 6 6 7 7 4 6 5 5 5 3 3 4 7 6 8 6 9 8 11 12 12 11 11 9 8 7 6 5 5 4 3 5 6
9 9 11 15 12 9 10 14 14 13 10 9 9 10 10 11 12 11 9 9 11 6 7 11 11 12 13 13 11 12 16 15 10 8 11 9 9 9 9 9 6 6 6 6 4 6 4 5 6 4 2 4 1 3 6 7 7 6 5 6 7 10 11 11 9 9 8 7 6 6 6 6 2 5
9 10 10 12 16 16 16 15 15 15 15 11 10 9 10 12 14 11 9 10 9 8 7 7 10 12 12 11 10 10 11 11 10 12 11 11 10 10 10 9 8 8 7 4 6 6 3 5 5 7 7 3 3 2 4 5 7 7 6 7 6 9 9 8 6 9 9 8 6 6 6 5 5 2
10 9 10 11 14 18 17 17 17 17 16 15 12 11 11 13 13 9 9 10 11 7 8 9 7 8 8 9 9 10 10 12 12 12 13 12 12 12 11 11 10 10 9 8 6 5 6 4 5 3 5 4 3 3 5 6 6 7 8 8 7 7 7 6 5 5 7 9 8 5 6 5 3 2
9 10 8 10 13 17 17 17 17 18 17 17 11 14 18 18 16 12 9 8 8 8 8 8 8 8 7 8 9 10 10 10 11 11 11 13 14 13 13 12 11 10 11 8 11 8 7 5 6 5 3 3 4 3 2 4 6 8 7 7 7 7 9 7 7 6 6 6 4 5 4 3 3 2
9 8 8 2 8 6 8 10 10 10 14 11 12 19 18 17 17 11 8 8 9 9 9 9 10 9 9 9 9 9 9 10 9 10 11 12 13 13 13 13 13 13 12 8 6 7 8 5 4 6 6 3 4 2 4 3 3 6 7 8 8 8 8 8 8 7 7 7 6 7 5 2 0 1
8 8 5 6 5 2 4 3 5 9 11 12 18 17 18 18 16 7 8 9 10 10 10 11 11 11 10 9 9 9 8 9 7 9 11 11 12 13 12 14 14 13 12 10 8 8 7 7 6 6 6 5 5 5 5 4 3 9 8 8 5 7 8 8 8 8 7 7 6 5 4 3 2 3
9 4 5 6 10 10 8 9 8 8 12 17 18 20 19 16 7 7 10 11 10 11 12 12 12 12 11 11 11 8 6 6 6 7 8 8 6 7 13 12 11 12 10 9 9 8 8 9 8 6 6 5 7 6 6 6 3 6 7 7 5 7 8 7 7 8 8 8 8 8 7 6 5 4
19 19 16 13 11 11 10 7 7 6 8 11 16 18 17 7 8 9 10 11 11 13 12 12 12 12 11 11 11 10 9 10 10 8 7 6 7 7 6 8 9 9 10 10 10 9 7 7 7 7 6 6 7 8 7 6 7 5 8 8 7 3 6 7 7 7 8 8 8 9 7 7 8 7
11 17 18 15 13 11 11 9 8 8 9 8 8 7 6 7 8 9 10 10 12 12 12 12 12 12 11 10 10 11 11 12 11 10 10 10 10 7 7 7 8 8 10 10 10 10 10 9 8 7 8 8 7 8 7 6 7 6 7 8 8 8 7 8 7 7 7 7 6 7 6 7 6 9
6 8 11 14 12 12 11 8 7 7 8 9 9 6 6 7 9 11 14 12 10 11 10 11 11 11 11 13 12 11 12 12 11 10 10 11 11 10 9 9 10 8 7 8 9 10 11 10 9 8 10 9 9 8 6 7 8 7 6 7 8 6 7 10 8 7 8 7 6 6 7 7 6 6
6 6 6 8 10 11 11 9 9 8 8 8 10 10 7 7 8 8 9 10 12 11 11 12 12 12 11 13 13 13 13 12 11 10 11 11 11 10 10 12 11 9 9 9 8 7 7 7 8 9 8 8 9 8 7 7 8 7 8 7 6 6 7 8 9 9 8 7 7 6 6 6 7 7
7 8 8 10 10 10 10 10 9 9 9 8 8 9 10 10 10 11 12 12 12 11 12 12 12 13 13 14 13 13 14 13 11 11 11 11 9 10 11 12 12 11 10 10 8 8 8 8 8 8 7 7 6 9 9 9 8 7 8 7 6 7 7 8 8 9 10 9 8 7 6 7 6 7
7 9 9 10 10 11 10 10 10 9 9 9 7 6 6 6 8 9 9 10 10 11 11 12 13 13 14 15 14 14 14 14 12 11 10 10 10 11 11 12 12 11 11 10 10 8 8 8 8 7 6 6 7 7 8 10 9 10 7 8 8 8 7 8 9 8 9 7 7 8 7 6 7 6
9 8 10 11 10 10 11 11 10 9 9 9 9 8 8 9 8 8 9 8 8 8 10 11 12 13 14 15 14 14 14 12 12 11 11 11 11 12 12 13 12 12 11 11 10 8 7 8 8 9 9 8 9 10 10 15 16 10 10 9 8 8 6 8 9 9 9 9 8 8 8 9 8 7
10 10 10 11 11 10 11 10 9 8 8 8 9 9 9 10 10 10 9 5 8 8 9 8 12 14 14 14 14 13 13 12 13 12 12 12 11 11 12 12 12 11 11 11 9 9 8 9 9 10 10 10 10 13 13 4 16 18 10 11 9 7 7 7 8 9 10 10 10 10 9 8 8 8
8 9 11 11 10 10 10 10 8 8 8 8 9 9 10 10 9 10 8 7 9 7 8 10 13 14 15 14 14 14 14 13 13 13 13 12 12 12 12 12 11 11 12 11 10 10 10 10 10 10 11 12 12 13 12 7 4 10 19 14 11 8 8 9 9 11 10 9 11 11 8 9 8 8
9 9 8 10 10 9 10 11 10 10 9 8 9 10 10 10 10 10 10 11 10 9 9 11 14 16 17 15 14 13 13 12 13 13 12 12 12 12 12 12 11 10 10 11 10 11 10 11 11 10 11 12 14 13 12 10 11 9 12 20 12 9 8 11 11 10 10 10 9 5 7 2 3 3
8 8 9 9 10 9 10 10 10 11 11 10 10 9 10 10 9 10 12 11 10 11 11 12 15 18 18 16 14 13 13 14 14 13 12 12 12 13 13 12 12 11 10 11 11 11 11 12 11 10 11 13 12 10 6 5 4 4 7 16 25 19 13 10 11 11 10 10 8 8 9 5 7 3
7 8 9 10 10 10 10 11 11 10 10 11 11 10 11 10 11 11 10 9 8 9 11 14 16 20 20 16 15 13 12 11 11 11 11 12 12 12 14 13 11 11 11 12 12 11 12 10 12 16 8 1 3 6 6 8 9 7 8 10 18 25 22 16 13 11 11 10 11 12 11 11 8 5
7 7 7 8 8 9 9 11 12 12 12 10 9 11 10 8 8 9 9 9 10 11 12 15 17 15 14 13 11 8 8 9 9 10 10 10 10 11 13 12 12 11 11 12 12 12 9 6 7 7 7 6 4 6 12 13 12 10 8 5 6 14 20 17 14 15 12 12 12 10 8 6 5 7
8 8 7 6 7 7 8 8 9 10 10 10 9 7 5 4 7 9 7 9 10 13 16 17 14 9 7 7 9 7 3 7 10 9 8 10 11 11 10 9 10 10 10 10 10 9 8 5 7 7 7 9 10 11 13 13 12 11 8 7 8 7 10 16 11 11 11 18 21 19 15 14 11 12
8 8 8 8 8 8 8 8 9 10 10 9 8 2 4 1 6 9 10 11 13 13 12 5 6 4 2 1 5 8 10 11 10 8 7 8 10 10 11 10 7 8 8 8 12 12 10 8 7 9 9 10 10 11 14 13 13 11 11 9 5 7 9 9 11 6 6 11 15 18 19 18 19 18
10 10 9 9 9 8 6 6 6 7 9 9 9 8 4 5 8 8 7 9 10 11 7 1 3 5 4 6 9 10 8 6 7 8 5 6 9 10 11 12 10 12 11 12 10 10 10 11 9 10 11 11 11 12 13 14 14 11 9 8 8 8 8 8 11 12 11 10 12 14 15 16 15 12
Wind_Direction
239 179 217 201 230 277 17 360 337 62 27 358 337 41 32 102 141 296 1 310 300 228 206 131 351 136 178 205 220 187 205 169 193 344 121 156 168 192 198 171 162 167 181 183 185 172 167 164 172 163 164 91 2 345 341 333 333 337 342 340 348 352 356 358 352 353 350 347 347 346 343 343 345 345
266 242 206 174 215 241 310 260 258 130 105 203 291 256 205 129 257 286 82 322 298 310 291 102 174 268 218 209 218 228 146 173 169 185 281 159 180 178 190 175 167 177 183 195 195 192 182 175 168 159 152 176 200 304 315 325 327 334 339 341 350 354 357 357 353 354 353 350 350 350 347 347 349 348
214 250 263 186 196 214 221 210 207 203 146 260 289 280 117 178 164 79 343 259 309 356 324 336 105 182 223 340 348 100 156 195 198 196 205 230 172 178 189 182 175 175 185 195 203 199 187 178 167 168 176 184 214 239 284 305 315 331 337 343 351 352 356 356 353 356 354 352 351 350 349 349 349 349
206 203 236 268 233 263 298 297 310 158 160 184 218 256 145 352 356 124 179 222 280 300 305 324 319 305 48 333 198 46 333 172 215 210 205 225 171 176 180 190 181 180 185 194 206 203 195 186 180 180 184 196 202 216 234 272 300 325 332 341 347 349 352 356 354 358 357 353 351 352 351 349 349 353
217 185 198 229 230 259 258 275 271 266 177 196 247 279 212 193 195 201 226 274 284 298 305 339 307 321 14 339 47 263 251 145 205 234 245 239 199 180 181 188 191 187 185 199 204 204 203 197 189 185 188 192 200 209 219 243 281 308 318 332 341 346 353 353 353 0 358 352 353 352 351 349 351 356
272 227 176 194 223 211 247 258 249 249 246 182 204 220 251 231 207 197 182 220 252 284 310 277 289 323 314 280 218 225 18 288 299 297 295 281 276 179 179 180 190 195 194 203 204 208 207 205 195 191 190 192 198 200 209 229 258 284 307 322 331 353 349 350 355 358 358 351 348 350 349 349 352 358
227 257 215 213 226 225 215 229 253 252 259 252 205 200 205 218 235 202 188 183 222 248 263 281 289 261 262 272 332 308 264 261 249 251 257 263 305 342 180 176 202 185 203 202 206 212 213 208 201 194 191 192 193 198 203 218 238 268 288 309 334 348 342 344 347 356 357 348 346 346 348 347 355 359
221 223 229 230 226 236 230 204 214 248 272 269 281 270 207 207 220 219 187 187 186 235 273 271 271 302 313 297 314 314 285 264 249 225 266 282 263 272 330 324 177 186 198 200 208 216 218 214 207 200 195 193 191 196 196 200 214 239 269 301 327 330 335 335 335 345 353 350 343 347 346 348 355 3
221 215 226 226 233 234 248 222 208 219 240 264 274 259 256 227 199 305 166 189 192 214 241 263 264 269 260 259 259 257 279 275 272 297 259 264 294 254 221 292 161 177 191 197 213 223 224 223 216 206 199 195 194 195 193 197 207 226 251 285 309 321 328 332 330 340 354 349 348 348 347 349 350 354
219 224 213 225 225 232 238 245 227 217 231 238 251 267 267 252 242 234 254 244 244 224 233 238 267 258 267 273 262 246 238 254 281 283 323 329 308 295 265 247 224 157 171 191 221 229 232 234 226 211 205 202 199 195 192 195 203 216 233 255 282 300 316 319 324 339 342 351 350 348 345 348 342 349
228 232 233 220 223 228 228 238 245 228 226 242 247 248 265 260 222 222 227 233 234 238 246 252 248 258 256 250 267 253 237 227 223 234 257 262 255 259 251 260 268 241 183 215 210 205 201 213 209 206 209 208 206 197 193 193 198 211 231 244 256 278 292 302 325 333 333 347 349 341 333 336 342 342
232 224 225 233 223 222 229 229 234 240 234 223 252 244 247 263 266 258 246 226 228 234 242 246 252 245 250 245 237 246 168 281 270 232 224 249 252 241 216 227 250 261 243 216 220 217 208 222 214 198 206 215 208 198 195 196 196 208 224 228 233 253 265 295 319 324 327 327 337 334 329 331 339 342
226 239 242 229 230 216 209 215 221 233 232 226 225 239 240 232 240 257 271 272 248 237 240 251 247 250 255 258 276 287 270 250 244 224 208 234 217 188 244 270 236 231 247 256 261 200 196 210 205 182 205 219 203 200 198 191 197 202 219 219 221 241 245 294 304 316 319 325 329 326 325 333 336 341
225 230 240 251 235 220 207 206 211 218 233 243 250 238 213 223 227 234 242 249 260 264 255 248 252 263 261 262 243 240 244 245 251 257 243 240 234 233 250 249 253 257 259 277 282 277 210 228 183 200 215 218 182 192 188 201 188 198 203 205 209 218 221 240 283 307 313 316 321 319 326 332 332 334
244 244 231 228 249 237 215 208 207 210 216 225 237 249 256 258 252 241 232 239 248 254 252 251 254 257 264 261 270 273 258 250 233 222 202 213 206 209 224 272 276 223 244 260 257 273 233 232 251 208 209 205 190 185 196 192 181 184 193 196 200 202 196 202 277 307 299 309 319 321 326 331 327 329
228 243 258 255 245 230 213 205 207 211 214 218 224 229 237 245 244 239 243 255 247 241 251 254 249 250 248 252 243 250 253 251 263 299 18 182 186 267 250 247 252 231 197 256 255 268 264 236 242 261 259 222 172 194 177 179 171 174 180 187 188 187 168 154 236 283 298 304 317 320 327 336 332 329
231 223 224 249 270 276 240 209 201 199 213 217 219 223 228 234 238 242 239 231 238 283 275 263 255 245 254 266 266 272 282 335 302 295 282 271 262 243 248 245 254 266 221 222 235 262 270 231 251 266 257 256 158 164 157 165 164 168 178 181 181 170 158 170 204 268 280 303 314 320 328 330 324 335
221 225 231 227 237 246 270 277 238 210 209 211 220 225 230 233 241 243 242 243 240 237 248 258 262 260 259 256 260 263 277 281 272 268 260 257 257 258 247 246 246 250 209 239 248 272 275 255 256 255 267 132 119 153 161 156 158 168 179 179 169 165 152 165 189 230 264 290 310 315 324 323 326 348
232 222 223 226 229 231 223 242 252 226 203 207 217 221 229 232 237 238 239 237 231 234 230 238 246 252 257 262 262 267 264 261 252 242 247 242 243 255 277 285 277 277 253 241 224 249 263 243 243 254 252 135 133 124 149 161 163 174 179 171 165 164 165 168 192 217 249 278 300 308 304 324 304 33
227 225 230 234 236 229 229 222 229 232 214 200 206 215 224 233 237 239 234 233 236 239 238 236 239 242 243 243 247 249 253 254 248 251 253 249 253 261 264 261 256 251 230 219 219 240 255 247 242 257 240 121 132 129 162 184 178 180 176 166 166 171 167 177 185 201 230 263 287 293 290 233 196 135
253 253 234 225 235 240 238 226 219 225 217 229 222 216 219 225 235 238 235 224 228 233 236 239 240 242 244 245 244 243 242 239 249 261 252 239 235 233 247 250 247 244 239 236 206 213 241 239 224 238 239 177 162 174 182 178 194 186 173 168 174 177 176 179 184 192 215 247 268 283 280 233 212 194
236 244 253 254 239 236 236 234 223 221 212 224 230 235 240 241 242 243 245 255 227 223 228 230 233 236 238 242 247 247 246 246 244 229 246 247 246 250 243 253 247 256 244 242 225 231 221 223 208 228 226 231 174 175 165 168 169 184 187 185 182 184 185 181 184 191 205 232 259 284 289 294 187 186
228 232 239 247 246 241 240 233 229 220 206 222 226 229 238 244 248 246 249 247 257 247 221 244 246 255 252 249 243 241 235 233 229 230 240 248 246 250 252 255 269 278 257 242 204 237 242 208 227 215 222 236 200 103 156 163 172 182 179 187 197 203 193 189 182 194 211 219 243 278 300 336 199 180
225 231 235 237 240 239 238 237 233 226 207 217 228 229 234 241 246 246 243 248 257 268 258 235 229 235 238 239 236 236 240 234 216 231 235 240 242 244 247 244 239 243 252 246 206 228 232 194 223 196 211 228 238 168 166 176 184 183 186 176 195 199 199 189 188 204 216 225 233 256 288 323 20 167
228 225 227 233 233 231 231 232 232 229 218 214 225 228 235 235 242 244 246 250 258 262 264 263 243 228 231 233 231 231 232 234 232 226 228 233 234 239 243 245 244 246 247 244 218 236 249 224 242 227 251 216 227 169 186 187 175 192 194 186 190 172 172 190 182 188 225 242 248 253 276 275 36 56
235 237 237 235 232 226 226 231 233 230 222 216 216 234 235 240 241 239 240 249 251 257 264 264 260 250 229 218 225 230 228 226 227 228 225 221 227 231 234 234 234 240 244 236 202 218 233 246 224 229 223 222 245 232 166 180 192 194 192 198 194 176 177 176 182 185 189 203 219 215 214 217 9 59
234 234 238 286 62 154 176 192 210 224 237 232 225 229 235 241 244 243 244 243 247 255 257 259 263 257 250 246 240 229 226 229 227 228 225 219 214 221 229 229 229 232 239 240 205 216 210 229 203 206 226 207 238 231 226 230 162 179 185 205 197 175 183 172 182 181 181 185 201 189 192 245 259 288
241 237 219 173 190 222 241 255 243 229 212 214 225 230 232 236 239 233 244 245 245 248 251 252 254 255 257 258 247 242 241 244 236 230 232 230 213 213 221 227 232 232 236 232 222 213 203 216 218 216 211 211 220 230 247 235 175 171 190 196 195 175 185 192 179 180 177 179 165 161 183 194 220 200
260 247 142 206 229 224 225 228 243 247 241 227 219 223 227 229 210 219 235 242 247 248 247 249 251 253 250 249 255 260 257 250 250 246 251 251 247 209 216 225 224 228 232 231 229 217 213 218 225 214 212 210 222 232 226 237 189 182 188 168 213 194 187 194 174 166 168 165 167 173 188 178 184 212
283 293 288 279 268 264 257 250 253 275 280 268 242 224 214 207 212 214 226 238 242 249 252 252 251 250 252 251 253 257 258 260 255 256 259 256 254 247 221 221 240 235 229 230 227 227 221 216 214 218 223 215 211 227 223 227 238 186 185 194 197 182 191 179 177 171 170 175 173 178 189 181 182 187
257 263 263 261 261 260 255 245 248 254 270 271 248 254 233 209 208 220 225 229 237 243 248 252 255 256 256 258 256 247 245 246 247 241 246 250 252 244 244 233 231 228 234 228 222 221 225 225 219 202 215 224 223 223 222 214 228 216 196 197 176 192 185 180 175 176 177 179 169 164 156 172 180 189
265 270 277 272 261 258 257 243 236 225 235 246 244 220 214 206 210 221 228 231 236 243 247 255 255 256 252 253 247 245 241 241 240 232 234 238 242 240 242 246 245 238 229 220 223 219 212 215 213 206 209 209 221 225 219 218 227 223 226 203 197 197 157 180 182 173 177 161 165 171 168 173 188 203
282 279 265 267 263 252 241 234 237 243 236 225 227 217 199 203 200 203 203 219 231 231 236 243 246 251 249 248 247 247 247 241 237 228 233 230 231 234 231 239 244 235 235 232 225 226 223 224 213 214 211 214 214 214 211 226 228 221 223 223 198 187 181 189 177 171 161 165 179 173 181 192 190 193
265 267 267 261 255 251 242 233 225 228 236 241 228 226 209 205 208 205 207 217 223 225 233 241 241 243 244 248 243 242 244 245 240 232 225 231 222 226 227 234 237 236 236 237 226 218 221 222 219 219 221 219 212 209 208 221 230 221 221 216 203 205 198 175 182 170 172 175 172 180 188 203 210 192
240 242 247 253 251 251 247 239 227 217 220 227 240 251 263 254 239 228 229 216 202 206 220 232 240 242 239 241 241 241 240 241 241 237 230 231 227 225 227 232 235 231 231 235 230 219 209 209 204 211 214 221 236 244 215 210 220 225 220 216 217 218 191 177 170 175 173 174 172 180 185 195 215 214
243 230 238 247 248 247 246 241 233 221 216 221 227 233 245 248 248 252 248 247 243 228 216 223 234 237 239 241 240 239 241 240 240 236 234 229 227 228 229 231 232 231 228 232 230 219 212 211 197 204 206 208 219 238 243 215 210 216 213 222 214 212 183 172 177 170 174 181 185 178 187 192 204 200
232 232 231 237 237 237 242 244 239 228 220 220 225 223 225 237 237 233 241 242 250 247 242 231 234 235 236 238 240 240 240 237 240 236 236 232 230 229 231 233 230 230 230 231 225 222 209 215 203 202 206 211 217 230 239 190 214 213 207 220 219 202 181 169 159 180 191 183 185 191 192 187 194 195
227 225 235 235 234 236 242 248 249 246 233 227 228 227 226 231 234 239 240 232 238 242 242 241 243 242 237 229 231 233 233 232 235 239 238 234 233 234 232 235 233 226 229 230 223 222 215 220 212 207 205 214 222 230 244 221 186 226 215 209 214 206 181 166 176 184 194 194 193 192 183 199 196 186
239 236 233 241 242 237 239 241 239 242 235 227 227 226 228 230 231 230 227 229 231 232 236 241 244 240 240 228 225 225 225 226 230 233 235 235 232 236 237 238 239 231 226 229 223 222 219 223 218 210 205 215 224 227 227 226 225 220 210 206 207 208 194 191 195 189 183 191 201 189 203 170 49 195
229 233 242 245 249 249 248 246 239 235 238 232 232 230 227 232 231 233 235 232 225 229 235 238 244 249 242 233 226 225 224 222 224 228 229 232 232 232 235 235 237 235 231 232 229 224 220 223 217 215 213 217 227 234 256 250 256 208 188 205 208 204 207 189 195 185 193 190 173 181 195 171 194 164
220 225 232 236 244 247 250 253 255 245 232 229 228 226 226 226 229 236 239 240 236 240 243 248 242 238 237 229 225 226 231 230 230 230 232 233 232 231 231 230 236 232 234 236 234 231 225 218 216 211 202 240 334 7 293 244 234 224 212 213 216 215 209 195 195 187 191 174 181 190 194 195 187 159
267 245 239 237 236 242 248 254 256 257 258 248 230 234 231 225 232 259 263 269 263 258 256 253 245 241 242 242 241 256 280 292 295 284 272 261 256 247 235 231 233 234 233 239 239 236 235 207 180 146 119 142 129 204 238 237 239 231 216 218 205 217 224 223 210 197 182 175 180 189 192 181 164 189
300 294 278 269 257 258 261 263 267 268 267 268 270 269 281 321 315 300 291 280 269 256 245 244 249 266 291 343 30 42 343 264 255 259 278 290 288 284 288 284 276 268 264 266 260 253 244 207 174 186 151 165 198 201 227 234 234 232 221 204 211 193 213 219 233 240 224 198 193 193 186 182 175 204
334 334 337 343 344 348 348 340 329 310 295 292 292 315 99 224 247 238 234 234 245 250 250 281 337 330 321 206 194 208 211 223 227 236 243 245 255 259 260 261 273 291 282 269 267 258 243 229 193 198 190 199 197 204 221 229 234 227 225 219 188 184 197 198 213 232 265 267 243 214 199 200 206 208
330 329 333 332 330 326 333 337 336 345 345 351 352 344 318 236 250 263 266 265 267 272 285 120 260 265 236 248 245 239 237 234 231 233 213 296 304 290 275 263 258 251 245 244 242 259 262 244 215 194 207 206 201 207 214 218 226 229 224 215 213 202 192 180 192 208 224 231 233 224 225 223 226 220